DW6120 Weather Reports


Display with metric or nautical units.
time (UTC)temp
F
wind
direction
speed
MPH
gust
MPH
rain 1hr
in
rain 24hr
in
rain mn
in
humidity
%
barometer
mb
20260504191605 71 254 5.0 12.0 0.00 0.00 0.00 28 1002.2
20260504190046 70 209 4.0 12.0 0.00 0.00 0.00 31 1002.3
20260504184541 71 239 5.0 12.0 0.00 0.00 0.00 31 1002.5
20260504183040 71 239 4.0 14.0 0.00 0.00 0.00 33 1002.6
20260504181536 68 246 4.0 13.0 0.00 0.00 0.00 35 1002.9
20260504180036 68 252 6.0 12.0 0.00 0.00 0.00 33 1002.9
20260504174535 68 241 8.0 13.0 0.00 0.00 0.00 34 1002.9
20260504173033 67 212 5.0 11.0 0.00 0.00 0.00 34 1003.0
20260504171544 67 255 1.0 5.0 0.00 0.00 0.00 33 1003.3
20260504090106 56 126 4.0 10.0 0.00 0.00 0.00 35 1003.8
20260504081552 59 94 9.0 21.0 0.00 0.00 0.00 28 1003.6
20260504044531 57 101 5.0 9.0 0.00 0.00 0.00 32 1005.0
20260504043042 57 74 5.0 7.0 0.00 0.00 0.00 32 1005.0
20260504041535 58 86 4.0 7.0 0.00 0.00 0.00 32 1005.1
20260504040031 59 81 4.0 7.0 0.00 0.00 0.00 31 1005.0
20260504034530 59 94 1.0 6.0 0.00 0.00 0.00 30 1005.0
20260504033031 60 98 3.0 8.0 0.00 0.00 0.00 30 1004.9
20260504031529 60 85 3.0 5.0 0.00 0.00 0.00 30 1004.8
20260504030027 60 85 2.0 8.0 0.00 0.00 0.00 29 1004.8
20260504024528 61 96 2.0 7.0 0.00 0.00 0.00 28 1004.8
20260504023028 62 90 4.0 7.0 0.00 0.00 0.00 28 1004.7
20260504021526 62 88 5.0 9.0 0.00 0.00 0.00 28 1004.7
20260504020026 63 84 5.0 8.0 0.00 0.00 0.00 28 1004.8
20260504014533 64 93 6.0 8.0 0.00 0.00 0.00 29 1004.9
20260504013023 65 86 4.0 7.0 0.00 0.00 0.00 28 1004.9
20260504011523 67 11 1.0 3.0 0.00 0.00 0.00 23 1005.1
20260504010022 68 310 3.0 7.0 0.00 0.00 0.00 22 1005.2
20260504004521 68 5 2.0 6.0 0.00 0.00 0.00 23 1005.1
20260504003023 70 232 5.0 9.0 0.00 0.00 0.00 20 1005.2
20260504001520 71 225 0.0 5.0 0.00 0.00 0.00 22 1005.3
20260504000018 71 225 2.0 5.0 0.00 0.00 0.00 20 1005.4
20260503234519 71 281 2.0 5.0 0.00 0.00 0.00 19 1005.2
20260503233017 72 221 0.0 7.0 0.00 0.00 0.00 19 1005.5
20260503231518 72 159 0.0 2.0 0.00 0.00 0.00 17 1005.6
20260503230016 73 227 1.0 5.0 0.00 0.00 0.00 19 1005.7
20260503224517 73 229 2.0 8.0 0.00 0.00 0.00 20 1005.8
20260503223015 74 242 4.0 8.0 0.00 0.00 0.00 19 1006.1
20260503221512 73 224 4.0 10.0 0.00 0.00 0.00 19 1006.4
20260503220008 73 242 5.0 10.0 0.00 0.00 0.00 18 1006.7
20260503214506 72 282 6.0 10.0 0.00 0.00 0.00 17 1007.1
20260503213004 74 232 4.0 8.0 0.00 0.00 0.00 18 1007.4
20260503211501 74 238 5.0 13.0 0.00 0.00 0.00 18 1007.7
20260503210002 74 180 2.0 12.0 0.00 0.00 0.00 16 1008.0
20260503204605 74 212 3.0 15.0 0.00 0.00 0.00 18 1008.2
20260503203058 73 217 5.0 8.0 0.00 0.00 0.00 18 1008.4
20260503201554 73 321 5.0 11.0 0.00 0.00 0.00 17 1008.8
20260503194556 73 207 1.0 7.0 0.00 0.00 0.00 19 1009.2
20260503193052 73 228 3.0 7.0 0.00 0.00 0.00 20 1009.3